Location: Privas
(44.7339°N, 4.5970°E)
Time: 06:36:06
(UTC+00:00)

Daily predictions for brighter satellites

Satellite Brightness Start Highest point End
(mag) Time Altitude Azimuth Time Altitude Azimuth Time Altitude Azimuth
Cosmos 1939 Rocket 3.8 17:01:22 10° SE 17:04:38 25° ENE 17:07:54 10° NNE
USA 308 4.2 17:01:33 10° NW 17:05:12 26° N 17:08:49 10° ENE
CZ-4B R/B 1.6 17:03:23 10° NNE 17:06:30 44° E 17:09:31 10° S
ATLAS 5 CENTAUR R/B 4.0 17:04:11 10° WNW 17:06:48 15° NNW 17:09:38 10° N
Cosmos 1606 Rocket 3.6 17:07:29 10° S 17:11:47 60° E 17:16:08 10° NNE
Helios 1A Rocket 4.1 17:08:40 10° ESE 17:11:54 23° ENE 17:15:07 10° NNE
GENESIS II 4.4 17:10:26 10° SW 17:14:28 83° NW 17:18:32 10° NE
FALCON 9 DEB 2.9 17:11:27 10° SW 17:14:40 72° SE 17:17:51 10° ENE
CZ-4B R/B 3.6 17:10:01 10° S 17:15:37 73° WSW 17:21:10 10° NNW
Okean-O 3.6 17:14:44 10° ESE 17:18:20 25° ENE 17:21:58 10° N
AQUARIUS 4.4 17:15:46 10° S 17:20:16 78° WSW 17:24:47 10° NNW
Cosmos 1656 4.3 17:15:37 10° SSE 17:20:35 35° ESE 17:25:37 10° NE
SKYMED 2 4.2 17:16:40 10° NNE 17:20:41 35° E 17:24:40 10° SSE
Cosmos 1689 Rocket 3.1 17:19:25 10° NE 17:21:52 25° E 17:24:19 10° SSE
Cosmos 1400 Rocket 3.4 17:19:43 10° SSE 17:23:32 37° E 17:27:20 10° NNE
H-2A R/B 3.3 17:22:20 10° ESE 17:26:19 21° ENE 17:30:20 10° NNE
CZ-4 R/B 2.3 17:25:25 10° ESE 17:28:37 25° ENE 17:31:49 10° NNE
Cosmos 2227 Rocket 2.6 17:23:51 10° NNW 17:29:13 41° ENE 17:34:33 10° SE
Cosmos 2058 4.1 17:27:00 10° NNE 17:30:07 20° ENE 17:33:12 10° ESE
Meteor 2-16 Rocket 4.4 17:24:24 10° N 17:30:30 71° E 17:36:34 10° SSE
Cosmos 1892 3.6 17:28:12 10° NNE 17:31:33 27° ENE 17:34:53 10° SE
Cosmos 2263 Rocket 4.1 17:32:29 10° NNE 17:33:56 11° NE 17:35:24 10° NE
BREEZE-M R/B 4.5 17:24:43 10° W 17:34:46 52° NNW 17:37:08 16° ENE
Cosmos 1408 3.9 17:32:59 10° NNE 17:35:41 19° ENE 17:37:15 15° ESE
Cosmos 1244 Rocket 4.5 17:31:54 10° N 17:38:06 68° E 17:44:20 10° SSE
CZ-4C R/B 4.4 17:35:51 10° NNW 17:39:59 17° NNE 17:44:25 10° NE
Cosmos 1300 2.9 17:38:05 10° SSW 17:41:53 76° W 17:45:43 10° N
Cosmos 1953 Rocket 3.7 17:38:04 10° N 17:42:30 83° W 17:46:57 10° S
Cosmos 2058 Rocket 3.0 17:40:42 10° S 17:45:09 68° E 17:49:39 10° NNE
Cosmos 1697 Rocket 3.5 17:40:26 10° SSE 17:45:12 29° ESE 17:49:37 12° NE
SL-4 R/B 3.1 17:44:04 10° NW 17:47:10 27° N 17:49:04 18° NE
IRS-1C Rocket 4.0 17:42:01 10° SSE 17:47:16 77° ENE 17:52:34 10° NNW
CZ-2D R/B 3.3 17:43:44 10° SSE 17:47:27 54° ENE 17:51:11 10° N
SeaSat 1 3.7 17:46:27 18° ENE 17:48:10 22° NE 17:51:51 10° N
NOSS 3-3 (A) 4.4 17:44:38 10° S 17:49:48 36° ESE 17:54:18 15° NE
NOSS 3-3 (C) 4.4 17:44:43 10° S 17:49:55 36° ESE 17:54:24 15° ENE
Cosmos 1346 Rocket 3.4 17:46:49 10° N 17:50:28 33° ENE 17:54:05 10° SE
USA 305 3.7 17:47:26 10° NW 17:51:26 35° NNE 17:53:27 23° ENE
Cosmos 1825 3.8 17:49:49 10° NNE 17:51:37 18° NE 17:51:37 18° NE
Cosmos 44 3.7 17:49:11 10° SW 17:53:37 57° NW 17:58:21 10° NNE
Cosmos 1315 Rocket 3.6 17:51:21 10° SSE 17:54:45 28° E 17:56:19 21° NE
USA 215 4.2 17:51:39 16° ENE 17:56:01 32° N 18:01:40 10° NW
USA 306 3.7 17:53:51 10° NW 17:57:51 37° NNE 17:59:35 26° ENE
ERS-2 4.0 17:56:43 10° N 17:59:59 31° WNW 18:03:14 10° SW
SAR-Lupe-4 4.2 17:56:26 10° N 17:59:59 58° WNW 18:03:30 10° SSW
BREEZE-M R/B 3.9 17:57:25 10° WNW 18:01:13 51° NNE 18:05:18 23° ENE
ATLAS 2AS CENTAUR R/B 4.0 17:55:43 10° NNW 18:02:02 27° NNE 18:05:17 20° ENE
Cosmos 968 Rocket 3.4 17:59:34 10° NNW 18:04:47 65° ENE 18:09:55 10° SSE
Cosmos 1340 2.7 18:01:38 10° NNW 18:05:25 79° W 18:09:11 10° S
Cosmos 1980 Rocket 3.2 18:03:33 10° SSE 18:07:19 23° ESE 18:07:19 23° ESE
COSMO-SKYMED 1 2.8 18:04:30 10° N 18:08:50 71° WNW 18:13:08 10° SSW
Cosmos 2297 Rocket 2.2 18:03:31 10° NNW 18:09:14 84° WSW 18:14:53 10° SSE
MOS 1 Rocket 3.7 18:05:10 10° NNE 18:09:37 40° E 18:14:17 10° SSE
Cosmos 1076 Rocket 3.9 18:06:33 10° N 18:10:32 39° ENE 18:11:36 33° ESE
Aureole 3 Rocket 3.5 18:06:55 10° SSW 18:10:46 69° WNW 18:16:08 10° N
In-Cosmos 22 Rocket 4.1 18:06:16 10° NNW 18:11:40 84° W 18:17:07 10° S
S3M 3.9 18:08:37 10° S 18:14:37 63° E 18:20:43 10° NNE
CSL-04 Debris 4.2 18:09:30 10° SE 18:14:46 54° ENE 18:20:06 10° N
SL-08 ROCKET BODY 4.4 18:15:14 10° N 18:21:23 85° E 18:27:34 10° S
Lacrosse 5 3.6 18:17:59 10° NW 18:21:45 20° N 18:23:30 17° NNE
YAOGAN 1 2.4 18:18:10 10° SSE 18:22:29 86° ENE 18:26:51 10° NNW
FALCON 9 DEB 4.1 18:19:55 10° W 18:22:56 35° NNW 18:23:30 32° N
Cosmos 2360 4.4 18:18:30 10° S 18:23:56 47° ESE 18:26:15 31° NE
Cosmos 1486 Rocket 4.1 18:19:56 10° NNW 18:25:18 82° WSW 18:30:36 10° SSE
Cosmos 1417 Rocket 4.5 18:19:26 10° S 18:25:42 87° W 18:32:04 10° N
FALCON 9 DEB 4.2 18:24:13 10° W 18:27:08 32° NNW 18:27:30 31° N
Milstar 3 4.4 18:23:43 10° SW 18:28:37 21° S 18:31:53 15° SE
Cosmos 1812 Rocket 3.5 18:25:15 10° S 18:29:34 57° E 18:30:36 44° NE
Cosmos 1455 2.0 18:26:36 10° S 18:30:21 77° E 18:31:13 51° NNE
CZ-2C R/B 3.3 18:26:43 10° SSE 18:32:33 85° WSW 18:38:14 10° NNW
Cosmos 1503 Rocket 3.9 18:29:54 10° NNW 18:35:07 71° ENE 18:37:11 37° SE
Cosmos 44 Rocket 3.8 18:31:50 10° S 18:35:27 39° SSE 18:35:27 39° SSE
Cosmos 2278 4.0 18:31:52 10° S 18:36:45 42° ESE 18:36:45 42° ESE
Cosmos 2219 4.2 18:33:58 10° NW 18:39:28 47° WSW 18:44:54 10° S
DMSP B5D1-3 4.4 18:34:56 10° NNE 18:40:07 83° ESE 18:45:16 10° SSW
USA 307 3.0 18:36:45 10° NW 18:40:52 60° NNE 18:40:52 60° NNE
Meteor 2-10 Rocket 3.7 18:38:26 10° SSW 18:43:45 71° WNW 18:48:54 10° N
USA 308 3.0 18:41:35 10° NW 18:45:31 62° N 18:45:31 62° N
Cosmos 1354 Rocket 3.8 18:41:25 10° NNW 18:46:42 78° ENE 18:47:52 54° SE
Cosmos 2082 3.6 18:42:33 10° NNW 18:48:19 89° WSW 18:50:46 36° SSE
Okean-O 4.2 18:50:37 10° SSW 18:54:40 35° W 18:58:44 10° NNW
Cosmos 1992 Rocket 4.3 18:50:40 10° SSW 18:55:50 67° WNW 18:59:48 17° NNE
ARGOS 3.0 18:54:41 45° SSE 18:56:26 85° ENE 19:01:54 10° NNW
Cosmos 2369 3.7 18:55:04 10° SSW 19:00:47 83° WNW 19:03:11 37° NNE
CZ-4 R/B 3.5 19:00:18 10° SSW 19:03:35 26° W 19:06:51 10° NW
H-2A R/B 2.6 18:59:54 10° S 19:05:15 62° W 19:10:40 10° NNW
Ariane Rocket 4.3 19:07:51 28° N 19:07:51 28° N 19:10:22 10° N
GEOS 3 Rocket 3.7 19:05:40 64° S 19:06:26 77° SW 19:11:51 10° NW
Geosat 4.5 19:06:43 32° N 19:08:55 59° WNW 19:13:50 10° SW
Cosmos 2227 Rocket 3.8 19:08:10 10° NW 19:13:08 32° WSW 19:18:04 10° SSW
CSL-04 Rocket 4.4 19:09:11 10° S 19:14:34 52° W 19:19:58 10° NNW
Atlas Centaur 2 4.1 19:12:13 10° SW 19:19:16 29° S 19:20:08 29° S
Cosmos 2263 Rocket 3.3 19:13:50 10° NNW 19:17:16 33° N 19:17:16 33° N
Timation 1 Rocket 4.3 19:14:18 10° NNW 19:20:20 79° WSW 19:20:34 77° SW
SeaSat 1 3.1 19:26:15 53° WNW 19:26:15 53° WNW 19:30:11 10° NNW
SL-4 R/B 4.4 19:23:36 10° NW 19:24:38 18° NW 19:24:38 18° NW
Cosmos 1697 Rocket 3.6 19:23:36 10° SW 19:28:56 44° WNW 19:31:25 28° N
CZ-4C R/B 3.7 19:24:09 10° NNW 19:29:36 36° NNE 19:29:36 36° NNE
NOSS 3-4 (A) 3.8 19:25:04 10° NW 19:31:39 70° NNE 19:31:39 70° NNE
NOSS 3-4 (C) 3.8 19:25:10 10° NW 19:31:43 69° NNE 19:31:43 69° NNE
DEBRIS 4.2 19:21:37 10° WSW 19:36:42 70° NNW 19:36:49 69° NNW
USA 215 3.6 19:39:00 54° N 19:39:00 54° N 19:44:39 10° NW
Cosmos 1980 Rocket 3.6 19:46:03 10° SW 19:49:10 32° WSW 19:49:10 32° WSW
ATLAS 2AS CENTAUR R/B 3.2 19:46:45 10° NW 19:52:43 57° NNW 19:52:43 57° NNW
Lacrosse 5 4.3 20:01:19 10° NW 20:02:41 17° NNW 20:02:41 17° NNW
